Morris, IL

3:12 AM CDT on March 29, 2017 (GMT -0500)
Morris

Weather History for KC09 - July, 2013

Change the Weather History Date:

Wednesday, July 3, 2013

  Actual Average (KARR) Record (KARR)
Temperature  
Mean Temperature 65 °F -  
Max Temperature 69 °F 80 °F 94 °F (2012)
Min Temperature 61 °F 59 °F 50 °F (2008)
Growing Degree Days 15 (Base 50)    
Moisture  
Dew Point 61 °F    
Average Humidity 89    
Maximum Humidity 100    
Minimum Humidity 75    
Precipitation  
Precipitation 0.37 in - - ()
Sea Level Pressure  
Sea Level Pressure 30.05 in    
Wind  
Wind Speed 1 mph (WSW)    
Max Wind Speed 6 mph    
Max Gust Speed -    
Visibility 8 miles    
Events Rain    
Averages and records for this station are not official NWS values.
T = Trace of Precipitation, MM = Missing Value Source: NWS Daily Summary

Daily Weather History Graph

Daily Weather History Graph

Search for Another Location

Airport or City:

Trip Planner

Search our weather history database for the weather conditions in past years. The results will help you decide how hot, cold, wet, or windy it might be!

Date:

Astronomy

Jul. 03, 2013 Rise Set
Actual Time 5:25 AM CDT 8:30 PM CDT
Civil Twilight 4:51 AM CDT 9:04 PM CDT
Nautical Twilight 4:08 AM CDT 9:47 PM CDT
Astronomical Twilight 3:17 AM CDT 10:38 PM CDT
Moon 2:04 AM CDT (7/3) 4:39 PM CDT (7/3)
Length of Visible Light 16h 12m
Length of Day
15h 05m
Waning Crescent, 18% of the Moon is Illuminated
Jul 3
Waning Crescent
Jul 8
New
Jul 15
First Quarter
Jul 22
Full
Jul 29
Last Quarter

Hourly Weather History & Observations

Time (CDT) Temp. Dew Point Humidity Pressure Visibility Wind Dir Wind Speed Gust Speed Precip Events Conditions
12:15 AM 61.9 °F 55.0 °F 78% 30.04 in 10.0 mi Calm Calm - N/A   Overcast
12:35 AM 61.7 °F 55.0 °F 79% 30.05 in 10.0 mi Calm Calm - N/A   Overcast
12:55 AM 61.7 °F 54.9 °F 78% 30.05 in 10.0 mi Calm Calm - N/A   Overcast
1:15 AM 61.7 °F 55.4 °F 80% 30.04 in 10.0 mi Calm Calm - N/A   Overcast
1:35 AM 61.7 °F 55.4 °F 80% 30.04 in 10.0 mi Calm Calm - N/A   Overcast
1:55 AM 61.7 °F 55.4 °F 80% 30.04 in 10.0 mi Calm Calm - N/A   Overcast
2:15 AM 61.7 °F 55.9 °F 81% 30.03 in 10.0 mi Calm Calm - N/A   Overcast
2:35 AM 61.7 °F 56.3 °F 82% 30.03 in 10.0 mi Calm Calm - N/A   Overcast
2:55 AM 61.7 °F 56.5 °F 83% 30.02 in 10.0 mi Calm Calm - N/A   Overcast
3:15 AM 61.7 °F 56.8 °F 84% 30.02 in 10.0 mi Calm Calm - N/A   Overcast
3:35 AM 61.9 °F 57.0 °F 84% 30.02 in 10.0 mi Calm Calm - N/A   Overcast
3:55 AM 61.9 °F 57.2 °F 85% 30.02 in 10.0 mi Calm Calm - N/A   Overcast
4:15 AM 61.9 °F 57.2 °F 85% 30.02 in 10.0 mi Calm Calm - N/A   Overcast
4:35 AM 62.1 °F 57.4 °F 85% 30.02 in 10.0 mi Calm Calm - N/A   Overcast
4:55 AM 61.9 °F 57.2 °F 85% 30.02 in 10.0 mi Calm Calm - N/A   Overcast
5:15 AM 61.9 °F 57.2 °F 85% 30.03 in 10.0 mi Calm Calm - N/A   Overcast
5:35 AM 61.9 °F 57.6 °F 86% 30.03 in 10.0 mi Calm Calm - N/A   Overcast
5:55 AM 61.9 °F 58.5 °F 89% 30.04 in 7.0 mi Calm Calm - N/A   Overcast
6:15 AM 61.9 °F 59.9 °F 93% 30.04 in 7.0 mi Calm Calm - N/A   Overcast
6:35 AM 62.1 °F 60.3 °F 94% 30.04 in 7.0 mi Calm Calm - N/A   Overcast
6:55 AM 61.7 °F 60.6 °F 96% 30.05 in 2.0 mi Calm Calm - N/A Rain Rain
7:15 AM 61.5 °F 60.8 °F 97% 30.05 in 1.0 mi Calm Calm - 0.06 in Rain Heavy Rain
7:35 AM 61.3 °F 61.0 °F 99% 30.06 in 1.5 mi Calm Calm - 0.17 in Rain Rain
7:55 AM 61.3 °F 61.2 °F 99% 30.06 in 1.5 mi Calm Calm - 0.19 in Rain Rain
8:15 AM 61.7 °F 61.7 °F 100% 30.06 in 1.2 mi Calm Calm - 0.06 in Rain Heavy Rain
8:35 AM 61.9 °F 61.9 °F 100% 30.06 in 1.8 mi NW 3.5 mph - 0.13 in Rain Rain
8:55 AM 61.9 °F 61.9 °F 100% 30.07 in 3.0 mi NW 3.5 mph - 0.17 in Rain Rain
9:15 AM 62.6 °F 62.6 °F 100% 30.06 in 5.0 mi NW 3.5 mph - 0.01 in Rain Light Rain
9:35 AM 62.6 °F 62.6 °F 100% 30.06 in 5.0 mi NW 4.6 mph - 0.01 in   Drizzle
9:55 AM 63.1 °F 62.8 °F 99% 30.06 in 4.0 mi NW 3.5 mph - 0.01 in Rain Rain
10:15 AM 63.5 °F 63.0 °F 98% 30.07 in 5.0 mi NW 3.5 mph - N/A   Light Drizzle
10:35 AM 63.5 °F 63.0 °F 98% 30.07 in 7.0 mi Calm Calm - N/A   Overcast
10:55 AM 63.9 °F 63.0 °F 97% 30.07 in 10.0 mi Calm Calm - N/A   Overcast
11:15 AM 64.2 °F 63.0 °F 96% 30.07 in 10.0 mi Calm Calm - N/A   Overcast
11:35 AM 64.4 °F 62.6 °F 94% 30.07 in 10.0 mi Calm Calm - N/A   Overcast
11:55 AM 64.4 °F 62.8 °F 94% 30.07 in 10.0 mi Calm Calm - N/A   Overcast
12:15 PM 64.8 °F 62.6 °F 93% 30.07 in 10.0 mi Calm Calm - N/A   Overcast
12:35 PM 65.3 °F 63.0 °F 92% 30.07 in 10.0 mi Calm Calm - N/A   Overcast
12:55 PM 65.8 °F 63.1 °F 91% 30.07 in 10.0 mi Calm Calm - N/A   Overcast
1:15 PM 66.0 °F 62.8 °F 89% 30.06 in 10.0 mi WNW 3.5 mph - N/A   Overcast
1:35 PM 65.7 °F 63.1 °F 92% 30.06 in 7.0 mi West 4.6 mph - N/A   Overcast
1:55 PM 66.0 °F 63.1 °F 90% 30.07 in 10.0 mi WSW 3.5 mph - N/A   Overcast
2:15 PM 66.2 °F 63.3 °F 90% 30.07 in 7.0 mi WSW 5.8 mph - N/A Rain Light Rain
2:35 PM 66.2 °F 64.0 °F 93% 30.07 in 5.0 mi Calm Calm - N/A   Drizzle
2:55 PM 66.9 °F 63.9 °F 90% 30.06 in 10.0 mi WSW 3.5 mph - N/A   Overcast
3:15 PM 68.7 °F 63.3 °F 83% 30.06 in 10.0 mi West 5.8 mph - N/A   Overcast
3:35 PM 68.0 °F 63.1 °F 84% 30.06 in 10.0 mi West 5.8 mph - N/A   Overcast
3:55 PM 68.0 °F 63.1 °F 84% 30.05 in 10.0 mi WNW 4.6 mph - N/A   Overcast
4:15 PM 68.4 °F 63.5 °F 84% 30.06 in 10.0 mi Calm Calm - N/A   Overcast
4:35 PM 69.3 °F 63.1 °F 81% 30.05 in 10.0 mi Calm Calm - N/A   Overcast
4:55 PM 68.9 °F 62.8 °F 81% 30.06 in 10.0 mi Calm Calm - N/A   Overcast
5:15 PM 68.9 °F 61.0 °F 76% 30.05 in 10.0 mi Calm Calm - N/A   Overcast
5:35 PM 68.7 °F 61.0 °F 76% 30.05 in 10.0 mi Calm Calm - N/A   Overcast
5:55 PM 69.1 °F 61.2 °F 76% 30.04 in 10.0 mi Calm Calm - N/A   Overcast
6:15 PM 69.4 °F 61.7 °F 76% 30.05 in 10.0 mi SSW 3.5 mph - N/A   Overcast
6:35 PM 69.3 °F 61.5 °F 76% 30.05 in 10.0 mi Calm Calm - N/A   Overcast
6:55 PM 69.6 °F 61.3 °F 75% 30.04 in 10.0 mi Calm Calm - N/A   Overcast
7:15 PM 69.3 °F 61.5 °F 76% 30.04 in 10.0 mi SE 3.5 mph - N/A   Scattered Clouds
7:35 PM 68.9 °F 62.6 °F 80% 30.05 in 10.0 mi Calm Calm - N/A   Clear
7:55 PM 68.4 °F 63.1 °F 83% 30.05 in 10.0 mi Calm Calm - N/A   Clear
8:15 PM 67.1 °F 63.7 °F 89% 30.05 in 10.0 mi SE 3.5 mph - N/A   Clear
8:35 PM 66.2 °F 63.5 °F 91% 30.06 in 10.0 mi SSE 3.5 mph - N/A   Clear
8:55 PM 65.5 °F 63.5 °F 93% 30.06 in 10.0 mi SSE 3.5 mph - N/A   Clear
9:15 PM 64.8 °F 63.1 °F 94% 30.06 in 7.0 mi SE 4.6 mph - N/A   Clear
9:35 PM 64.9 °F 63.1 °F 94% 30.07 in 10.0 mi SE 3.5 mph - N/A   Clear
9:55 PM 65.3 °F 63.1 °F 93% 30.07 in 10.0 mi Calm Calm - N/A   Clear
10:15 PM 65.3 °F 63.1 °F 93% 30.08 in 10.0 mi Calm Calm - N/A   Clear
10:35 PM 64.6 °F 63.0 °F 94% 30.08 in 7.0 mi Calm Calm - N/A   Clear
10:55 PM 64.4 °F 63.0 °F 95% 30.08 in 7.0 mi SE 3.5 mph - N/A   Clear
11:15 PM 64.0 °F 62.8 °F 96% 30.08 in 7.0 mi Calm Calm - N/A   Clear
11:35 PM 63.9 °F 63.1 °F 97% 30.08 in 5.0 mi SE 3.5 mph - N/A   Clear
11:55 PM 63.1 °F 62.6 °F 98% 30.08 in 5.0 mi Calm Calm - N/A   Clear